TimeEET,TemperatureF,Dew PointF,Humidity,Sea Level PressureIn,VisibilityMPH,Wind Direction,Wind SpeedMPH,Gust SpeedMPH,PrecipitationIn,Events,Conditions,WindDirDegrees,DateUTC
12:00 AM,62.6,46.4,55,30.04,-9999.0,SSE,1.2,-,N/A,,Clear,150,2013-11-30 22:00:00
1:00 AM,60.8,50.0,68,30.01,-9999.0,SE,4.6,-,N/A,,Clear,130,2013-11-30 23:00:00
2:00 AM,59.0,53.6,82,30.01,-9999.0,SSE,8.1,-,N/A,,Clear,150,2013-12-01 00:00:00
3:00 AM,55.4,51.8,88,30.01,-9999.0,SSW,3.5,-,N/A,,Clear,200,2013-12-01 01:00:00
4:00 AM,55.4,51.8,88,30.01,-9999.0,South,2.3,-,N/A,,Clear,180,2013-12-01 02:00:00
5:00 AM,53.6,51.8,94,30.04,-9999.0,South,1.2,-,N/A,,Clear,190,2013-12-01 03:00:00
6:00 AM,51.8,50.0,94,30.01,-9999.0,SE,2.3,-,N/A,,Clear,140,2013-12-01 04:00:00
7:00 AM,53.6,46.4,77,30.04,-9999.0,South,5.8,-,N/A,,Clear,180,2013-12-01 05:00:00
8:00 AM,57,47,61,30.06,6,South,5.8,,,,Mostly Cloudy,170,2013-12-01 06:00:00
8:00 AM,57.2,48.2,72,30.06,-9999.0,South,5.8,-,N/A,,Clear,170,2013-12-01 06:00:00
9:00 AM,64.4,44.6,49,30.04,-9999.0,SE,8.1,-,N/A,,Clear,140,2013-12-01 07:00:00
10:00 AM,71.6,44.6,38,30.04,-9999.0,SSE,4.6,-,N/A,,Clear,150,2013-12-01 08:00:00
11:00 AM,79,42,17,30.05,6,SSE,5.8,,,,Scattered Clouds,150,2013-12-01 09:00:00
11:00 AM,78.8,42.8,28,30.04,6.2,SSE,5.8,-,N/A,,Mostly Cloudy,150,2013-12-01 09:00:00
12:00 PM,80.6,42.8,26,30.01,6.2,South,3.5,-,N/A,,Mostly Cloudy,170,2013-12-01 10:00:00
2:00 PM,86,40,11,29.99,6,Calm,Calm,,,,Scattered Clouds,,2013-12-01 12:00:00
5:00 PM,76,46,24,30.00,4,Calm,Calm,,,,Haze,,2013-12-01 15:00:00
8:00 PM,72,43,24,30.02,6,SSE,8.1,,,,Clear,160,2013-12-01 18:00:00
11:00 PM,67,43,30,30.03,6,SSE,8.1,,,,Clear,160,2013-12-01 21:00:00
11:00 PM,66.2,42.8,43,30.01,-9999.0,SSE,8.1,-,N/A,,Clear,160,2013-12-01 21:00:00